Bennington, VT

5:38 PM EST on February 19, 2018 (GMT -0500)
Morse State

Weather History for KDDH - December, 2012

Change the Weather History Date:

Wednesday, December 5, 2012

  Actual Average Record
Temperature  
Mean Temperature 43 °F 32 °F  
Max Temperature 60 °F 40 °F 62 °F (2001)
Min Temperature 26 °F 24 °F 3 °F (2003)
Degree Days  
Heating Degree Days 22 33  
Month to date heating degree days 116 162  
Since 1 July heating degree days 1568 1775  
Cooling Degree Days 0 0  
Month to date cooling degree days 0 0  
Year to date cooling degree days 476 313  
Moisture  
Dew Point 34 °F    
Average Humidity 70    
Maximum Humidity 93    
Minimum Humidity 47    
Precipitation  
Precipitation 0.31 in 0.09 in 0.43 in (2017)
Month to date precipitation 0.54 0.48  
Year to date precipitation 30.19 38.39  
Sea Level Pressure  
Sea Level Pressure 30.00 in    
Wind  
Wind Speed 10 mph (WNW)    
Max Wind Speed 23 mph    
Max Gust Speed 36 mph    
Visibility 9 miles    
Events Rain , Snow    
T = Trace of Precipitation, MM = Missing Value Source: NWS Daily Summary

Daily Weather History Graph

Daily Weather History Graph

Search for Another Location

Airport or City:

Trip Planner

Search our weather history database for the weather conditions in past years. The results will help you decide how hot, cold, wet, or windy it might be!

Date:

Astronomy

Dec. 05, 2012 Rise Set
Actual Time 7:08 AM EST 4:18 PM EST
Civil Twilight 6:36 AM EST 4:50 PM EST
Nautical Twilight 6:01 AM EST 5:26 PM EST
Astronomical Twilight 5:27 AM EST 6:00 PM EST
Moon 11:12 PM EST (12/5) 11:24 AM EST (12/5)
Length of Visible Light 10h 13m
Length of Day
9h 09m
Waning Gibbous, 60% of the Moon is Illuminated
Dec 5
Waning Gibbous
Dec 6
Last Quarter
Dec 13
New
Dec 20
First Quarter
Dec 28
Full

Hourly Weather History & Observations

Time (EST) Temp. Windchill Dew Point Humidity Pressure Visibility Wind Dir Wind Speed Gust Speed Precip Events Conditions
12:54 AM 57.9 °F - 52.0 °F 81% 29.85 in 4.0 mi SSW 5.8 mph 16.1 mph 0.05 in Rain Light Rain
1:16 AM 57.2 °F - 51.8 °F 82% 29.86 in 7.0 mi Variable 5.8 mph - 0.01 in Rain Light Rain
1:44 AM 55.4 °F - 51.8 °F 88% 29.87 in 7.0 mi West 12.7 mph 19.6 mph 0.01 in   Overcast
1:54 AM 55.0 °F - 51.1 °F 86% 29.87 in 6.0 mi WSW 13.8 mph - 0.01 in Rain Light Rain
2:16 AM 51.8 °F - 48.2 °F 88% 29.89 in 8.0 mi WSW 10.4 mph 19.6 mph 0.01 in Rain Light Rain
2:54 AM 48.9 °F - 46.0 °F 90% 29.93 in 7.0 mi West 10.4 mph 18.4 mph 0.04 in Rain Light Rain
3:16 AM 48.2 °F - 44.6 °F 87% 29.92 in 9.0 mi West 6.9 mph 18.4 mph 0.03 in Rain Light Rain
3:54 AM 48.0 °F - 45.0 °F 89% 29.92 in 4.0 mi WNW 5.8 mph - 0.07 in Rain Light Rain
4:27 AM 46.4 °F 42.4 °F 44.6 °F 93% 29.92 in 5.0 mi West 8.1 mph - 0.09 in Rain Rain
4:54 AM 46.9 °F - 43.0 °F 86% 29.93 in 9.0 mi West 6.9 mph - 0.13 in Rain Light Rain
5:54 AM 46.0 °F 42.5 °F 42.1 °F 86% 29.94 in 10.0 mi West 6.9 mph - 0.01 in   Partly Cloudy
6:18 AM 44.6 °F 40.2 °F 42.8 °F 93% 29.94 in 10.0 mi West 8.1 mph - N/A   Mostly Cloudy
6:54 AM 45.0 °F 40.1 °F 39.9 °F 82% 29.95 in 10.0 mi WSW 9.2 mph - N/A   Mostly Cloudy
7:54 AM 44.1 °F 39.0 °F 39.0 °F 82% 29.96 in 10.0 mi WSW 9.2 mph - N/A   Overcast
9:35 AM 44.6 °F 39.7 °F 37.4 °F 76% 29.98 in 10.0 mi West 9.2 mph - N/A   Overcast
9:54 AM 44.1 °F 39.5 °F 37.0 °F 76% 29.99 in 10.0 mi West 8.1 mph - N/A   Overcast
10:04 AM 44.6 °F 40.7 °F 37.4 °F 76% 29.99 in 10.0 mi West 6.9 mph - N/A   Overcast
10:39 AM 44.6 °F 40.7 °F 35.6 °F 71% 29.99 in 10.0 mi NW 6.9 mph - N/A   Overcast
10:54 AM 44.1 °F 37.1 °F 35.1 °F 71% 29.99 in 10.0 mi WNW 15.0 mph 25.3 mph N/A   Overcast
11:54 AM 42.1 °F 33.9 °F 30.0 °F 62% 29.99 in 10.0 mi West 17.3 mph 29.9 mph 0.00 in   Overcast
12:54 PM 39.9 °F 30.8 °F 26.1 °F 58% 30.00 in 10.0 mi West 18.4 mph 31.1 mph N/A   Mostly Cloudy
1:54 PM 37.9 °F 29.6 °F 24.1 °F 57% 30.02 in 10.0 mi West 13.8 mph 24.2 mph N/A   Overcast
2:54 PM 37.0 °F 29.3 °F 23.0 °F 57% 30.04 in 10.0 mi WNW 11.5 mph 23.0 mph N/A   Overcast
3:54 PM 37.0 °F 31.0 °F 21.9 °F 54% 30.06 in 10.0 mi WNW 8.1 mph 19.6 mph N/A   Overcast
4:54 PM 36.0 °F 27.5 °F 19.0 °F 50% 30.08 in 10.0 mi NW 12.7 mph 20.7 mph N/A   Overcast
5:54 PM 34.0 °F 26.0 °F 18.0 °F 52% 30.11 in 10.0 mi NW 10.4 mph 19.6 mph N/A   Overcast
6:54 PM 33.1 °F 23.9 °F 21.0 °F 61% 30.14 in 9.0 mi NNW 12.7 mph 19.6 mph 0.00 in Snow Light Snow
7:54 PM 30.9 °F 21.2 °F 17.1 °F 57% 30.17 in 10.0 mi NNW 12.7 mph 23.0 mph 0.00 in   Overcast
8:54 PM 30.0 °F 20.5 °F 12.9 °F 49% 30.18 in 10.0 mi NNW 11.5 mph 23.0 mph N/A   Overcast
9:54 PM 28.9 °F 22.8 °F 12.9 °F 51% 30.20 in 10.0 mi NW 5.8 mph 17.3 mph N/A   Overcast
10:54 PM 28.0 °F 19.3 °F 12.9 °F 53% 30.22 in 10.0 mi NW 9.2 mph 23.0 mph N/A   Clear
11:54 PM 27.0 °F 21.6 °F 14.0 °F 58% 30.23 in 10.0 mi NW 4.6 mph - N/A   Partly Cloudy